User: anonymous   Login
Location: Unspecified
(0.0000°N, 0.0000°E)
Time: 02:49:28
(UTC+00:00)
Language:

PAYLOAD G - Orbit

View from above orbital plane
View from above orbital plane
View from above satellite
View from above satellite

Ground track
Ground track

The orbit data is extracted from the following two-line orbital elements,

1 27846U 03031G   17147.56186197 +.00000031 +00000-0 +33645-4 0  9996
2 27846 098.6827 155.6818 0009763 028.1426 332.0278 14.22106535721386
Epoch (UTC): 27 May 2017 13:29:04
Eccentricity: 0.0009763
inclination: 98.6827°
perigee height: 811 km
apogee height: 825 km
right ascension of ascending node: 155.6818°
argument of perigee: 28.1426°
revolutions per day: 14.22106535
mean anomaly at epoch: 332.0278°
orbit number at epoch: 72138

The dashed part of the orbit path shows where the satellite is in the earth's shadow,  

DLR